Le nostre stazioni meteo in Italia

Pubblicità
Il mio iltempo24.it
Chamonix, Francia (7469): Temperatura & dewpoint: 12.01.2020 10:00:00 - 18.01.2020 10:00:00 (CET)Chamonix, Francia (7469): velocità del vento & gusts: 12.01.2020 10:00:00 - 18.01.2020 10:00:00 (CET)Chamonix, Francia (7469): direzione del vento: 12.01.2020 10:00:00 - 18.01.2020 10:00:00 (CET)Chamonix, Francia (7469): precipitazioni: 12.01.2020 10:00:00 - 18.01.2020 10:00:00 (CET)
Data & Tempo tt [°C] td [°C] ff [km/h] ff [kn] fx [km/h] fx [kn] dd rr [mm]
18.01.2020 10:00:00 - - - - - - - -
18.01.2020 09:00:00 -0,3 -0,7 0 0 5 3 N 0,0
18.01.2020 08:00:00 -0,3 -0,7 0 0 5 3 N 0,0
18.01.2020 07:00:00 -0,2 -0,6 4 2 15 8 ESE -
18.01.2020 06:00:00 0,0 -0,4 2 1 13 7 SE 0,2
18.01.2020 05:00:00 0,1 -0,3 0 0 9 5 N 0,2
18.01.2020 04:00:00 0,1 -0,3 0 0 9 5 N 0,0
18.01.2020 03:00:00 0,1 -0,3 2 1 9 5 SE 0,4
18.01.2020 02:00:00 0,2 -0,2 2 1 11 6 SSE 0,0
18.01.2020 01:00:00 0,2 -0,2 4 2 16 9 SO -
18.01.2020 00:00:00 0,2 -0,2 4 2 18 10 SSO 0,4
17.01.2020 23:00:00 0,3 -0,1 4 2 15 8 SSO 0,8
17.01.2020 22:00:00 0,2 -0,2 2 1 8 4 S 2,0
17.01.2020 21:00:00 0,1 -0,3 0 0 2 1 N 1,0
17.01.2020 20:00:00 0,1 -0,3 0 0 4 2 N 1,0
17.01.2020 19:00:00 0,2 -0,4 0 0 4 2 N -
17.01.2020 18:00:00 0,2 -0,5 0 0 5 3 N 3,0
17.01.2020 17:00:00 1,1 0,1 2 1 9 5 SSE 1,0
17.01.2020 16:00:00 3,3 0,2 2 1 22 12 SSO 0,0
17.01.2020 15:00:00 5,2 -1,9 9 5 21 11 SO 0,0
17.01.2020 14:00:00 4,5 -0,7 2 1 13 7 S 0,0
17.01.2020 13:00:00 4,0 -0,4 2 1 8 4 SO -
17.01.2020 12:00:00 1,0 -0,5 2 1 5 3 NE 0,0
17.01.2020 11:00:00 -1,6 -2,3 4 2 9 5 E 0,0
17.01.2020 10:00:00 -3,1 -3,8 4 2 9 5 NNE 0,0
17.01.2020 09:00:00 -4,9 -5,6 4 2 8 4 NNE 0,0
17.01.2020 08:00:00 -6,5 -7,3 0 0 9 5 N 0,0
17.01.2020 07:00:00 -6,9 -7,8 2 1 5 3 ENE -
17.01.2020 06:00:00 -6,8 -7,7 0 0 9 5 N 0,0
17.01.2020 05:00:00 -6,3 -7,1 4 2 9 5 E 0,0
17.01.2020 04:00:00 -6,1 -6,9 4 2 9 5 ENE 0,0
17.01.2020 03:00:00 -6,2 -7,0 0 0 4 2 N 0,0
17.01.2020 02:00:00 -5,9 -6,7 0 0 8 4 N 0,0
17.01.2020 01:00:00 -5,5 -6,3 0 0 8 4 N -
17.01.2020 00:00:00 -5,0 -5,8 2 1 8 4 ENE 0,0
16.01.2020 23:00:00 -4,5 -5,2 2 1 8 4 ENE 0,0
16.01.2020 22:00:00 -4,1 -4,9 2 1 8 4 NE 0,0
16.01.2020 21:00:00 -3,7 -4,5 0 0 4 2 N 0,0
16.01.2020 20:00:00 -3,2 -4,2 0 0 4 2 N 0,0
16.01.2020 19:00:00 -2,5 -3,6 0 0 5 3 N -
16.01.2020 18:00:00 -1,5 -2,9 2 1 5 3 N 0,0
16.01.2020 17:00:00 0,9 -2,3 0 0 5 3 N 0,0
16.01.2020 16:00:00 7,9 -1,6 4 2 8 4 S 0,0
16.01.2020 15:00:00 8,7 -3,5 2 1 8 4 SSO 0,0
16.01.2020 14:00:00 6,0 -0,1 4 2 8 4 E 0,0
16.01.2020 13:00:00 0,8 -1,0 0 0 9 5 N -
16.01.2020 12:00:00 -4,4 -5,2 2 1 5 3 S 0,0
16.01.2020 11:00:00 -4,7 -5,5 4 2 8 4 N 0,0
16.01.2020 10:00:00 -4,9 -5,7 2 1 8 4 NNE 0,0
16.01.2020 09:00:00 -4,9 -5,6 2 1 9 5 ESE 0,0
16.01.2020 08:00:00 -5,5 -6,3 2 1 8 4 S 0,0
16.01.2020 07:00:00 -5,2 -5,9 2 1 8 4 NNE -
16.01.2020 06:00:00 -5,7 -6,5 2 1 8 4 E 0,0
16.01.2020 05:00:00 -5,5 -6,2 4 2 8 4 NNO 0,0
16.01.2020 04:00:00 -5,5 -6,2 0 0 8 4 N 0,0
16.01.2020 03:00:00 -5,0 -5,7 0 0 5 3 N 0,0
16.01.2020 02:00:00 -4,5 -5,2 0 0 8 4 N 0,0
16.01.2020 01:00:00 -3,9 -4,4 0 0 9 5 N -
16.01.2020 00:00:00 -4,2 -4,9 2 1 8 4 NE 0,0
15.01.2020 23:00:00 -3,7 -4,4 2 1 8 4 NE 0,0
15.01.2020 22:00:00 -3,5 -4,3 4 2 8 4 E 0,0
15.01.2020 21:00:00 -2,9 -3,6 4 2 8 4 ESE 0,0
15.01.2020 20:00:00 -2,6 -3,4 0 0 8 4 N 0,0
15.01.2020 19:00:00 -1,7 -2,8 5 3 11 6 ENE -
15.01.2020 18:00:00 -0,8 -2,2 4 2 9 5 ENE 0,0
15.01.2020 17:00:00 3,4 -2,2 4 2 28 15 SSO 0,0
15.01.2020 16:00:00 6,3 -3,1 8 4 13 7 OSO 0,0
15.01.2020 15:00:00 7,4 -2,9 4 2 11 6 O 0,0
15.01.2020 14:00:00 8,2 -1,1 0 0 8 4 N 0,0
15.01.2020 13:00:00 0,7 -2,0 4 2 9 5 ESE -
15.01.2020 12:00:00 -3,0 -4,0 2 1 8 4 E 0,0
15.01.2020 11:00:00 -5,2 -6,2 2 1 9 5 NO 0,0
15.01.2020 10:00:00 -5,4 -6,4 0 0 9 5 N 0,0
15.01.2020 09:00:00 -5,8 -6,6 4 2 9 5 NO 0,0
15.01.2020 08:00:00 -6,1 -6,9 4 2 8 4 ENE 0,0
15.01.2020 07:00:00 -5,7 -6,5 2 1 9 5 E -
15.01.2020 06:00:00 -5,5 -6,3 4 2 9 5 NE 0,0
15.01.2020 05:00:00 -5,4 -6,4 2 1 9 5 NE 0,0
15.01.2020 04:00:00 -4,8 -5,6 4 2 11 6 NE 0,0
15.01.2020 03:00:00 -4,7 -5,5 4 2 11 6 E 0,0
15.01.2020 02:00:00 -4,6 -5,4 0 0 5 3 N 0,0
15.01.2020 01:00:00 -4,4 -5,4 2 1 5 3 SSE -
15.01.2020 00:00:00 -3,9 -5,0 4 2 8 4 E 0,0
14.01.2020 23:00:00 -3,7 -5,0 2 1 8 4 S 0,0
14.01.2020 22:00:00 -3,5 -4,6 0 0 5 3 N 0,0
14.01.2020 21:00:00 -3,1 -4,1 0 0 9 5 N 0,0
14.01.2020 20:00:00 -2,7 -3,8 2 1 8 4 ENE 0,0
14.01.2020 19:00:00 -1,8 -3,2 4 2 8 4 E -
14.01.2020 18:00:00 -0,7 -2,4 0 0 5 3 N 0,0
14.01.2020 17:00:00 0,8 -1,9 4 2 8 4 NNE 0,0
14.01.2020 16:00:00 4,3 -3,2 2 1 8 4 S 0,0
14.01.2020 15:00:00 5,2 -2,9 2 1 8 4 O 0,0
14.01.2020 14:00:00 5,1 -4,5 4 2 9 5 SO 0,0
14.01.2020 13:00:00 -0,5 -2,1 0 0 8 4 N -
14.01.2020 12:00:00 -4,4 -5,2 2 1 8 4 E 0,0
14.01.2020 11:00:00 -5,7 -6,7 2 1 9 5 E 0,0
14.01.2020 10:00:00 -6,5 -7,4 2 1 5 3 NNO 0,0
14.01.2020 09:00:00 -7,2 -8,1 4 2 9 5 E 0,0
14.01.2020 08:00:00 -7,5 -8,6 2 1 9 5 N 0,0
14.01.2020 07:00:00 -7,3 -8,4 4 2 9 5 N -
14.01.2020 06:00:00 -6,8 -7,7 4 2 9 5 N 0,0
14.01.2020 05:00:00 -6,4 -7,2 4 2 11 6 NE 0,0
14.01.2020 04:00:00 -7,2 -8,1 4 2 9 5 N 0,0
14.01.2020 03:00:00 -7,2 -8,1 0 0 8 4 N 0,0
14.01.2020 02:00:00 -6,9 -7,8 4 2 11 6 ENE 0,0
14.01.2020 01:00:00 -6,8 -7,7 0 0 8 4 N -
14.01.2020 00:00:00 -6,3 -7,2 0 0 5 3 N 0,0
13.01.2020 23:00:00 -5,6 -6,6 4 2 9 5 E 0,0
13.01.2020 22:00:00 -5,3 -6,3 0 0 9 5 N 0,0
13.01.2020 21:00:00 -4,5 -5,6 2 1 8 4 NNO 0,0
13.01.2020 20:00:00 -3,9 -4,9 2 1 8 4 NNO 0,0
13.01.2020 19:00:00 -3,1 -4,2 4 2 8 4 ENE -
13.01.2020 18:00:00 -2,0 -3,6 2 1 9 5 N 0,0
13.01.2020 17:00:00 0,4 -2,3 4 2 9 5 NE 0,0
13.01.2020 16:00:00 2,8 -0,8 2 1 8 4 ESE 0,0
13.01.2020 15:00:00 3,6 -1,0 2 1 8 4 NNE 0,0
13.01.2020 14:00:00 5,4 -3,4 4 2 8 4 SO 0,0
13.01.2020 13:00:00 1,0 -1,9 2 1 8 4 SE -
13.01.2020 12:00:00 -2,6 -3,6 4 2 8 4 ONO 0,0
13.01.2020 11:00:00 -4,0 -4,8 0 0 8 4 N 0,0
13.01.2020 10:00:00 -5,5 -6,3 2 1 8 4 E 0,0
13.01.2020 09:00:00 -6,7 -7,6 0 0 9 5 N 0,0
13.01.2020 08:00:00 -7,5 -8,4 2 1 8 4 E 0,0
13.01.2020 07:00:00 -7,8 -8,9 0 0 9 5 N -
13.01.2020 06:00:00 -8,1 -9,2 2 1 8 4 ONO 0,0
13.01.2020 05:00:00 -8,2 -9,4 0 0 5 3 N 0,0
13.01.2020 04:00:00 -7,9 -9,0 0 0 5 3 N 0,0
13.01.2020 03:00:00 -7,5 -8,4 0 0 5 3 N 0,0
13.01.2020 02:00:00 -7,1 -8,0 4 2 8 4 ENE 0,0
13.01.2020 01:00:00 -6,7 -7,5 4 2 11 6 NNO -
13.01.2020 00:00:00 -6,1 -7,0 4 2 9 5 N 0,0
12.01.2020 23:00:00 -5,6 -6,6 4 2 9 5 NNE 0,0
12.01.2020 22:00:00 -5,0 -6,0 0 0 8 4 N 0,0
12.01.2020 21:00:00 -4,3 -5,5 2 1 9 5 SE 0,0
12.01.2020 20:00:00 -3,6 -4,7 0 0 8 4 N 0,0
12.01.2020 19:00:00 -3,1 -4,2 2 1 9 5 NE -
12.01.2020 18:00:00 -2,0 -3,4 4 2 9 5 NE 0,0
12.01.2020 17:00:00 -0,1 -2,3 0 0 8 4 N 0,0
12.01.2020 16:00:00 3,4 -1,6 2 1 9 5 SSO 0,0
12.01.2020 15:00:00 5,4 -0,7 0 0 5 3 N 0,0
12.01.2020 14:00:00 4,3 -0,5 0 0 8 4 N 0,0
12.01.2020 13:00:00 -1,3 -2,0 0 0 4 2 N -
12.01.2020 12:00:00 -6,6 -7,5 0 0 4 2 N 0,0
12.01.2020 11:00:00 -7,0 -7,9 0 0 5 3 N 0,0
12.01.2020 10:00:00 -7,6 -8,7 0 0 4 2 N 0,0

tt = Temperatura
td = dewpoint
ff = velocità del vento
fx = gusts
dd = direzione del vento
rr = precipitazioni

Stazioni seguenti

WeatherPro
AMSI
MeteoEarth